Groningen, Netherlands

7:21 AM CET on February 23, 2017 (GMT +0100)
Eelde

Weather History for EHGG - January, 2014

Change the Weather History Date:

Friday, January 24, 2014

  Actual Average Record
Temperature  
Mean Temperature 28 °F -  
Max Temperature 31 °F 40 °F 51 °F (2001)
Min Temperature 26 °F 29 °F 9 °F (2013)
Degree Days  
Heating Degree Days 36    
Moisture  
Dew Point 28 °F    
Average Humidity 90    
Maximum Humidity 100    
Minimum Humidity 75    
Precipitation  
Precipitation 0.00 in 0.06 in - ()
Sea Level Pressure  
Sea Level Pressure 29.95 in    
Wind  
Wind Speed 9 mph ()    
Max Wind Speed 13 mph    
Max Gust Speed -    
Visibility 1.6 miles    
Events Fog , Rain    
Averages and records for this station are not official NWS values.
T = Trace of Precipitation, MM = Missing Value Source: Averaged Metar Reports

Daily Weather History Graph

Daily Weather History Graph

Search for Another Location

Airport or City:

Trip Planner

Search our weather history database for the weather conditions in past years. The results will help you decide how hot, cold, wet, or windy it might be!

Date:

Astronomy

Jan. 24, 2014 Rise Set
Actual Time 8:29 AM CET 5:02 PM CET
Civil Twilight 7:50 AM CET 5:41 PM CET
Nautical Twilight 7:08 AM CET 6:24 PM CET
Astronomical Twilight 6:27 AM CET 7:04 PM CET
Moon 1:25 AM CET (1/24) 11:22 AM CET (1/24)
Length of Visible Light 9h 50m
Length of Day
8h 32m
Waning Gibbous, 47% of the Moon is Illuminated
Jan 24
Waning Gibbous
Jan 30
New
Feb 6
First Quarter
Feb 15
Full
Feb 22
Last Quarter

Hourly Weather History & Observations

Time (CET) Temp. Windchill Dew Point Humidity Pressure Visibility Wind Dir Wind Speed Gust Speed Precip Events Conditions
12:00 AM 34 °F - 33 °F 97% 29.82 in 1 mi East 6.7 mph - - Rain Drizzle
12:25 AM 33.8 °F 27.0 °F 33.8 °F 100% 29.80 in 1.2 mi East 8.1 mph - N/A   Light Drizzle
12:55 AM 33.8 °F 25.8 °F 32.0 °F 93% 29.83 in 1.3 mi ESE 10.4 mph - N/A   Light Drizzle
1:00 AM 33 °F - 32 °F 96% 29.84 in 1 mi East 11.2 mph - - Rain Light Drizzle
1:25 AM 33.8 °F 26.4 °F 32.0 °F 93% 29.83 in 1.3 mi ESE 9.2 mph - N/A   Overcast
1:55 AM 32.0 °F 24.2 °F 32.0 °F 100% 29.83 in 1.2 mi ESE 9.2 mph - N/A   Overcast
2:00 AM 33 °F - 32 °F 96% 29.85 in 1 mi ESE 8.9 mph - - Rain Drizzle
2:25 AM 32.0 °F 24.2 °F 32.0 °F 100% 29.83 in 1.1 mi ESE 9.2 mph - N/A   Mostly Cloudy
2:55 AM 32.0 °F 24.8 °F 32.0 °F 100% 29.86 in 1.0 mi East 8.1 mph - N/A   Overcast
3:00 AM 32 °F - 32 °F 100% 29.87 in 1 mi ESE 6.7 mph - -   Mist
3:25 AM 32.0 °F 24.2 °F 32.0 °F 100% 29.86 in 1.0 mi ESE 9.2 mph - N/A   Overcast
3:55 AM 32.0 °F 24.8 °F 32.0 °F 100% 29.86 in 0.8 mi East 8.1 mph - N/A   Mostly Cloudy
4:00 AM 32 °F - 32 °F 99% 29.89 in 1 mi East 6.7 mph - - Fog Fog
4:25 AM 32.0 °F 25.6 °F 32.0 °F 100% 29.89 in 0.8 mi ESE 6.9 mph - N/A   Overcast
4:55 AM 32.0 °F 24.8 °F 32.0 °F 100% 29.89 in 0.8 mi East 8.1 mph - N/A   Overcast
5:00 AM 32 °F - 32 °F 98% 29.90 in 1 mi East 8.9 mph - - Fog Fog
5:25 AM 32.0 °F 24.8 °F 32.0 °F 100% 29.89 in 0.9 mi East 8.1 mph - N/A   Overcast
5:55 AM 32.0 °F 24.8 °F 32.0 °F 100% 29.89 in 0.9 mi East 8.1 mph - N/A   Overcast
6:00 AM 32 °F - 31 °F 96% 29.91 in 1 mi East 8.9 mph - - Fog Fog
6:25 AM 32.0 °F 24.2 °F 30.2 °F 93% 29.89 in 0.9 mi East 9.2 mph - N/A   Mostly Cloudy
6:55 AM 32.0 °F 23.0 °F 30.2 °F 93% 29.92 in 1.1 mi East 11.5 mph - N/A   Overcast
7:00 AM 31 °F - 30 °F 95% 29.94 in 1 mi East 11.2 mph - - Fog Fog
7:25 AM 32.0 °F 25.6 °F 30.2 °F 93% 29.92 in 1.4 mi East 6.9 mph - N/A   Overcast
7:55 AM 30.2 °F 23.4 °F 30.2 °F 100% 29.98 in 1.3 mi ESE 6.9 mph - N/A   Overcast
8:00 AM 31 °F - 30 °F 93% 29.99 in 1 mi East 8.9 mph - -   Mist
8:25 AM 30.2 °F 21.3 °F 30.2 °F 100% 29.98 in 1.4 mi East 10.4 mph - N/A   Overcast
8:55 AM 30.2 °F 21.3 °F 28.4 °F 93% 30.01 in 1.4 mi East 10.4 mph - N/A   Overcast
9:00 AM 31 °F - 29 °F 90% 30.03 in 1 mi East 11.2 mph - -   Mist
9:25 AM 30.2 °F 21.3 °F 28.4 °F 93% 30.01 in 1.6 mi East 10.4 mph - N/A   Overcast
9:55 AM 30.2 °F 20.8 °F 28.4 °F 93% 30.01 in - East 11.5 mph - N/A   Overcast
10:00 AM 30 °F - 28 °F 89% 30.04 in 2 mi East 11.2 mph - -   Mist
10:25 AM 30.2 °F 21.9 °F 28.4 °F 93% 30.04 in - ESE 9.2 mph - N/A   Overcast
10:55 AM 30.2 °F 22.6 °F 28.4 °F 93% 30.04 in - East 8.1 mph - N/A   Overcast
11:00 AM 30 °F - 28 °F 86% 30.04 in 2 mi East 8.9 mph - -   Mist
11:25 AM 30.2 °F 21.9 °F 28.4 °F 93% 30.01 in - East 9.2 mph - N/A   Overcast
11:55 AM 30.2 °F 20.8 °F 28.4 °F 93% 30.01 in - East 11.5 mph - N/A   Overcast
12:00 PM 30 °F - 27 °F 85% 30.02 in 2 mi East 11.2 mph - -   Mist
12:25 PM 30.2 °F 21.9 °F 26.6 °F 86% 30.01 in - East 9.2 mph - N/A   Overcast
12:55 PM 30.2 °F 21.3 °F 26.6 °F 86% 30.01 in - East 10.4 mph - N/A   Overcast
1:00 PM 30 °F - 27 °F 82% 30.03 in 2 mi East 8.9 mph - -   Mist
1:25 PM 30.2 °F 21.3 °F 26.6 °F 86% 30.01 in - East 10.4 mph - N/A   Overcast
1:55 PM 30.2 °F 22.6 °F 26.6 °F 86% 30.04 in - ESE 8.1 mph - N/A   Overcast
2:00 PM 30 °F - 27 °F 84% 30.08 in 2 mi East 8.9 mph - -   Mist
2:25 PM 30.2 °F 21.3 °F 26.6 °F 86% 30.06 in 2.2 mi East 10.4 mph - N/A   Overcast
2:55 PM 30.2 °F 21.3 °F 26.6 °F 86% 30.04 in - East 10.4 mph - N/A   Overcast
3:00 PM 30 °F - 27 °F 83% 30.06 in 2 mi East 8.9 mph - -   Mist
3:25 PM 30.2 °F 21.9 °F 26.6 °F 86% 30.06 in - East 9.2 mph - N/A   Overcast
3:55 PM 30.2 °F 21.9 °F 26.6 °F 86% 30.04 in - East 9.2 mph - N/A   Mostly Cloudy
4:00 PM 30 °F - 27 °F 82% 30.06 in 2 mi East 6.7 mph - -   Mist
4:25 PM 30.2 °F 20.8 °F 26.6 °F 86% 30.04 in 2.2 mi East 11.5 mph - N/A   Overcast
4:55 PM 28.4 °F 18.5 °F 24.8 °F 86% 30.01 in - East 11.5 mph - N/A   Overcast
5:00 PM 29 °F - 26 °F 81% 30.02 in 3 mi East 8.9 mph - -   Mist
5:25 PM 28.4 °F 18.5 °F 24.8 °F 86% 29.98 in - East 11.5 mph - N/A   Overcast
5:55 PM 28.4 °F 19.7 °F 24.8 °F 86% 29.95 in - East 9.2 mph - N/A   Overcast
6:00 PM 29 °F - 25 °F 78% 29.97 in 2 mi East 11.2 mph - -   Mist
6:25 PM 28.4 °F 19.7 °F 24.8 °F 86% 29.98 in - ESE 9.2 mph - N/A   Overcast
6:55 PM 28.4 °F 19.7 °F 24.8 °F 86% 29.95 in 2.5 mi East 9.2 mph - N/A   Overcast
7:00 PM 29 °F - 25 °F 78% 29.96 in 2 mi ESE 8.9 mph - -   Mist
7:25 PM 28.4 °F 19.1 °F 24.8 °F 86% 29.95 in - East 10.4 mph - N/A   Overcast
7:55 PM 28.4 °F 18.0 °F 24.8 °F 86% 29.95 in 2.5 mi East 12.7 mph - N/A   Overcast
8:00 PM 28 °F - 24 °F 81% 29.96 in 3 mi East 11.2 mph - -   Mist
8:25 PM 28.4 °F 19.1 °F 24.8 °F 86% 29.95 in - East 10.4 mph - N/A   Overcast
8:55 PM 28.4 °F 19.1 °F 24.8 °F 86% 29.92 in 2.5 mi ESE 10.4 mph - N/A   Overcast
9:00 PM 28 °F - 24 °F 79% 29.93 in 2 mi ESE 8.9 mph - -   Mist
9:25 PM 28.4 °F 18.5 °F 23.0 °F 80% 29.89 in - ESE 11.5 mph - N/A   Overcast
9:55 PM 28.4 °F 19.1 °F 23.0 °F 80% 29.89 in - ESE 10.4 mph - N/A   Overcast
10:00 PM 28 °F - 23 °F 75% 29.92 in 3 mi ESE 8.9 mph - -   Mist
10:25 PM 28.4 °F 18.5 °F 23.0 °F 80% 29.89 in - ESE 11.5 mph - N/A   Overcast
10:55 PM 28.4 °F 19.1 °F 23.0 °F 80% 29.89 in 2.8 mi ESE 10.4 mph - N/A   Overcast
11:00 PM 28 °F - 23 °F 75% 29.91 in 3 mi ESE 11.2 mph - -   Mist
11:25 PM 26.6 °F 16.8 °F 23.0 °F 86% 29.89 in - ESE 10.4 mph - N/A   Overcast
11:55 PM 26.6 °F 18.2 °F 23.0 °F 86% 29.89 in - ESE 8.1 mph - N/A   Overcast